SCP
0 0 0 0 -0 -0 -0 -0 -0 0 -0 -0 -0 0 -0 -0 -0 0 0 0 0 -0 0 0 0 0 0 0 0 0 0 0 0 0 0 0 0 0 0 0 0 0 0
-0 0 -0 -0 -0 -0 -0 -0 -0 0 0 0 0 0 0 0 0 0 0 0 0 0 0 0 0 0 0 0 0 0 0 0 0 0 0 0 0 0 0 0 0 0 0
0 0 -0 -0 -0 -0 -0 -0 0 0 -0 0 -0 0 0 0 0 0 0 0 0 0 0 0 0 0 0 0 0 0 0 0 0 0 0 0 0 0 0 0 0 0 0
0 -0 -0 -0 -0 -0 0 -0 -0 -0 0 -0 0 0 0 0 0 0 -0 0 0 0 0 0 0 0 0 0 0 0 0 0 0 0 0 0 0 0 0 0 0 0 0
0 -0 -0 -0 -0 0 0 0 0 -0 0 -0 0 0 0 0 0 0 0 0 0 0 0 -0 0 0 0 0 0 0 0 0 0 0 0 0 0 0 0 0 0 0 0
0 0 0 -0 0 0 0 0 0 0 0 0 0 0 0 0 0 0 0 0 0 0 0 0 0 0 0 0 0 0 0 0 0 0 0 0 0 0 0 0 0 0 0
-0 -0 0 0 -0 0 0 0 0 0 0 0 0 -0 -0 0 0 0 -0 0 0 0 0 0 0 0 0 0 0 0 0 0 0 0 0 0 0 0 0 0 0 0 0
0 0 0 0 0 0 0 0 0 0 0 0 0 -0 0 0 0 0 0 0 0 0 0 0 0 0 0 0 0 0 0 0 0 0 0 0 0 0 0 0 0 0 0
0 0 0 0 0 0 -0 0 -0 -0 0 0 0 0 0 0 0 0 0 0 0 0 0 -0 -0 0 0 0 0 0 0 0 0 0 0 0 0 0 0 0 0 0 0
0 0 0 0 0 0 0 0 0 -0 -0 0 0 0 0 0 0 0 0 0 0 0 0 0 0 0 0 0 0 0 0 0 0 0 0 0 0 0 0 0 0 0 0
0 0 0 0 0 0 0 0 0 -0 -0 0 0 0 0 0 0 0 0 0 0 0 0 0 0 0 0 0 0 0 0 0 0 0 0 0 0 0 0 0 0 0 0
0 0 0 0 0 0 0 0 0 0 0 0 0 0 0 0 0 0 0 0 0 0 0 0 0 0 0 0 0 0 0 0 0 0 0 0 0 0 0 0 0 0 0
0 0 0 0 0 0 0 0 0 0 0 0 0 0 0 0 0 0 0 0 0 0 0 0 0 0 0 0 0 0 0 0 -0 0 0 0 0 0 0 0 0 0 0
0 0 0 0 0 0 0 0 0 0 0 0 0 0 0 0 0 0 0 0 0 0 0 0 0 0 0 0 0 0 0 0 0 0 0 0 0 0 0 0 0 0 0
0 0 0 0 0 0 0 0 0 0 0 0 0 0 0 0 0 0 0 0 0 0 1 1 1 0 0 0 0 0 0 0 0 0 0 0 0 0 0 0 0 0 0
0 0 0 0 0 0 0 0 0 0 0 0 0 0 0 0 0 0 0 0 0 0 0 0 1 1 0 0 0 0 0 0 0 0 0 0 0 0 0 0 0 0 0
0 0 0 0 0 0 0 0 0 0 0 0 0 0 0 0 0 0 0 0 0 0 0 0 0 0 0 0 0 0 0 0 0 0 0 0 0 0 0 0 0 0 0
0 0 0 0 0 0 0 0 0 0 0 0 0 0 0 0 0 0 0 0 0 0 0 0 0 0 0 0 0 0 0 0 0 0 0 1 0 0 0 0 0 0 0
0 0 0 0 0 0 0 0 0 0 0 0 0 0 0 0 0 0 0 0 0 0 0 0 0 0 0 0 0 0 0 0 0 0 1 1 1 0 0 0 0 0 0
0 0 0 0 0 0 0 0 0 0 0 0 0 0 0 0 0 0 0 0 0 0 0 0 0 0 0 0 0 0 0 0 0 0 0 0 0 0 0 0 1 1 1
0 0 0 0 0 0 0 0 0 0 0 0 0 0 0 0 0 0 0 0 0 0 0 0 0 0 0 0 0 0 0 0 0 0 0 0 0 0 0 0 0 0 0
0 0 0 0 0 0 0 0 0 0 0 0 0 0 0 0 0 0 0 0 0 0 0 0 0 0 0 0 0 0 0 0 0 0 0 0 0 0 0 0 0 0 0
0 0 0 0 0 0 0 0 0 0 0 0 0 0 0 0 0 0 0 0 0 0 0 0 0 0 0 0 0 0 0 0 0 0 0 0 0 0 0 0 0 0 0
0 0 0 0 0 0 0 0 0 0 0 0 0 0 0 0 0 0 0 0 0 0 0 0 0 0 0 0 0 0 0 0 0 0 0 0 0 0 0 0 0 0 0
0 0 0 0 0 0 0 0 0 0 0 0 0 0 0 0 0 0 0 0 0 0 0 0 0 0 0 0 0 0 0 0 0 0 0 0 0 0 0 0 0 0 0
0 0 0 0 0 0 0 0 0 0 0 0 0 0 0 0 0 0 0 0 0 0 0 0 0 0 0 0 0 0 0 0 0 0 0 0 0 0 0 0 0 0 0
Wind_Speed_500mb
44 44 45 42 45 39 39 39 36 33 29 34 32 27 23 16 15 12 9 8 12 11 10 11 14 7 11 14 9 8 5 9 14 11 11 14 14 11 11 12 13 14 13
40 44 50 49 47 44 40 40 37 34 32 33 26 26 21 18 14 10 9 8 9 13 12 16 12 11 16 10 8 8 6 11 17 15 12 9 9 10 9 7 9 10 13
51 48 50 54 50 49 44 40 37 35 33 31 27 29 23 18 18 13 10 9 11 16 11 11 15 11 10 8 7 5 6 11 16 16 12 7 8 10 7 5 5 12 14
52 50 53 55 55 53 46 42 39 35 35 31 29 27 22 18 15 17 10 9 11 14 18 13 15 11 13 9 10 4 4 8 14 11 14 14 16 8 7 8 4 13 10
57 56 58 59 59 57 51 45 42 37 36 34 29 27 21 18 15 17 15 11 11 11 20 20 17 12 10 12 14 7 3 6 11 14 11 14 17 19 9 5 5 8 6
55 57 56 60 62 61 56 48 44 41 37 35 31 31 21 19 17 14 18 15 12 13 20 22 21 18 12 11 11 12 9 3 5 10 13 12 13 18 14 6 6 3 3
51 48 57 61 66 64 59 46 45 46 43 39 35 32 28 21 16 14 10 15 15 11 18 21 22 21 14 12 10 16 13 7 4 2 6 7 10 14 18 17 7 5 4
50 53 55 63 60 49 52 56 49 54 49 44 38 33 29 28 16 15 11 8 16 11 14 20 17 24 20 14 17 17 17 14 11 8 6 3 4 8 11 15 17 7 5
54 51 49 56 69 57 46 66 59 50 52 50 44 37 30 28 26 18 15 11 12 14 13 18 16 20 22 19 19 23 22 22 22 18 16 14 11 6 7 9 11 12 8
37 54 55 48 67 66 51 40 51 57 55 54 50 38 31 27 28 24 20 16 16 21 18 17 19 17 17 21 19 21 26 24 23 25 26 23 22 18 13 12 13 12 11
36 46 56 60 61 69 66 40 35 49 52 47 48 47 36 32 31 29 25 18 16 18 23 24 23 26 25 24 24 20 23 27 29 29 29 28 28 26 26 23 21 23 21
27 36 44 56 61 62 72 58 50 48 43 44 52 48 43 38 35 35 33 27 21 17 15 16 22 21 23 27 26 24 22 24 22 23 26 28 28 31 30 29 30 29 31
21 22 25 38 47 56 66 66 53 57 43 35 45 50 37 39 37 34 35 34 27 27 23 21 19 20 17 21 22 19 23 24 24 26 24 24 26 27 30 30 32 31 35
19 22 22 25 25 34 56 62 62 56 50 44 36 47 55 42 38 32 29 32 32 30 27 28 26 21 20 18 18 19 21 27 24 23 24 22 22 23 24 26 30 33 36
15 19 22 25 25 32 39 50 47 48 42 31 28 29 40 35 25 24 23 24 25 25 25 23 29 28 25 26 27 25 24 26 26 28 28 28 27 24 29 31 32 31 31
16 19 25 24 27 32 35 30 40 40 33 26 25 29 37 39 24 18 17 20 24 26 22 18 22 28 32 32 29 29 29 31 31 30 31 31 32 34 32 32 31 32 33
24 22 25 29 27 32 38 39 42 42 38 36 32 31 32 33 37 36 18 15 10 12 14 16 14 16 25 31 31 33 32 31 31 32 32 32 29 33 33 31 29 34 34
23 24 26 28 28 28 26 27 32 33 34 32 26 22 17 20 25 26 31 37 28 20 16 14 17 17 20 21 22 30 32 34 35 35 34 36 36 36 37 40 42 41 41
25 26 25 27 30 31 30 31 33 32 32 27 22 18 15 15 18 20 22 23 22 18 18 26 25 26 28 25 25 19 22 29 35 37 36 39 40 46 46 47 49 48 50
31 32 32 32 29 30 25 21 24 23 21 22 17 13 11 10 13 13 13 11 10 13 14 12 18 24 28 34 37 35 30 25 26 31 36 45 48 50 48 48 51 50 43
38 37 35 33 31 29 22 16 18 15 14 11 9 8 7 7 8 10 11 12 13 13 11 12 14 16 17 27 35 39 44 41 34 28 32 37 45 48 49 50 50 51 55
41 37 36 32 27 21 15 10 8 7 6 5 6 8 9 9 10 11 12 12 13 14 16 17 17 20 22 22 25 25 29 34 34 30 29 28 32 35 38 39 40 42 43
40 35 26 22 19 13 9 7 6 7 7 9 10 11 12 13 13 13 15 16 17 18 21 21 23 25 27 29 29 31 32 37 38 40 39 42 42 42 40 38 40 42 43
36 30 24 18 14 11 9 9 11 13 13 13 13 15 16 16 15 14 14 13 13 15 18 20 21 22 24 27 29 32 33 34 37 39 40 43 47 50 49 49 47 46 45
35 28 21 16 13 11 11 12 12 12 12 12 13 14 15 15 14 15 14 14 15 14 15 15 16 18 19 20 23 25 26 29 32 32 33 35 36 37 38 39 41 42 44
37 32 24 19 16 16 16 15 14 12 11 12 13 14 14 14 13 11 11 10 13 15 14 15 14 17 20 25 27 30 32 33 35 35 33 33 32 33 35 38 39 37 36
Wind_Direction_500mb
198 199 200 201 202 196 195 197 194 191 190 184 177 177 177 170 163 169 178 179 189 198 178 171 147 143 141 134 113 113 82 44 43 51 34 54 72 82 92 95 101 97 90
201 201 204 205 208 206 202 202 201 201 195 189 195 189 183 189 186 199 207 194 189 182 165 172 170 141 146 145 126 125 91 55 43 41 46 39 61 48 54 83 94 100 109
202 203 204 207 208 211 209 205 203 200 198 200 204 196 192 195 198 205 211 229 219 197 187 186 194 176 175 165 153 123 86 53 39 41 51 34 35 34 33 49 87 128 120
206 206 207 208 211 213 212 210 204 199 200 206 209 211 211 210 200 195 204 200 197 206 204 186 178 200 208 208 197 160 78 63 49 56 49 55 46 27 29 26 91 153 142
206 208 213 213 211 212 211 212 207 202 207 211 213 215 222 207 197 195 201 203 215 207 198 197 192 183 167 185 191 194 141 64 58 61 76 60 44 30 40 44 50 173 183
206 214 224 216 211 214 212 214 214 210 212 219 214 212 217 213 204 206 214 219 213 219 206 202 198 185 185 202 206 207 205 159 67 70 79 74 59 41 39 24 16 57 143
204 208 214 213 212 213 213 216 224 221 215 218 220 220 222 223 225 202 195 208 216 211 205 204 204 199 204 211 218 209 205 211 197 73 66 59 52 46 41 36 23 62 26
203 206 213 214 212 216 222 213 223 225 223 220 223 226 226 231 241 235 203 217 228 223 221 211 202 209 212 223 223 219 225 227 230 236 254 324 17 28 27 29 28 11 359
200 205 205 213 205 206 222 226 228 228 231 229 227 229 234 234 231 237 228 234 235 228 219 213 215 207 218 232 234 227 231 240 244 250 249 257 279 315 345 355 4 12 357
186 201 208 205 204 203 213 224 233 238 239 237 234 233 242 241 232 234 239 245 244 229 229 227 227 225 228 234 231 234 238 240 247 255 252 248 254 270 287 304 317 317 320
180 195 206 213 214 208 208 225 230 239 245 239 241 231 241 243 238 233 237 247 254 241 241 235 240 240 241 240 247 251 249 242 247 256 257 250 248 252 266 279 288 293 295
186 201 200 208 216 218 216 222 233 249 251 242 237 231 235 246 246 239 238 242 245 231 235 229 236 250 253 243 254 253 247 240 256 256 252 247 252 250 255 266 277 278 274
183 186 207 210 213 216 215 223 240 246 239 233 234 240 233 246 245 241 236 239 245 247 247 239 248 254 248 244 249 254 238 243 252 258 257 250 249 252 254 262 273 275 273
180 182 173 191 202 214 214 216 223 231 236 233 250 240 226 238 242 236 235 237 242 252 258 252 247 244 238 249 248 251 251 251 254 253 255 251 254 257 257 263 274 272 266
168 181 178 185 191 196 213 220 223 231 232 218 232 223 214 207 200 208 214 222 233 242 247 251 245 243 252 247 243 245 246 247 252 258 258 259 259 259 259 261 269 271 265
170 167 177 172 180 190 199 192 203 208 196 200 206 212 220 214 184 174 183 214 230 235 233 232 237 242 245 251 260 258 257 257 258 259 258 263 261 262 260 261 263 265 269
168 163 171 176 169 168 172 177 185 191 193 191 196 203 215 223 222 227 229 245 224 208 222 222 221 237 241 252 257 259 260 263 266 270 269 270 269 268 264 260 262 267 265
149 151 155 162 167 175 183 196 190 188 187 192 199 203 202 202 209 220 232 237 237 253 249 238 238 250 254 254 260 259 257 260 262 264 267 269 270 272 271 269 269 272 274
145 143 144 152 146 152 157 164 162 169 176 188 189 191 187 200 228 231 232 223 224 232 249 248 252 259 268 266 255 276 277 267 262 262 265 266 267 263 261 265 272 274 275
156 149 142 138 139 132 127 140 143 142 148 153 167 178 198 215 224 216 205 212 221 223 218 237 248 249 257 266 265 266 276 288 285 281 274 268 266 268 268 268 269 272 275
157 153 148 142 140 135 134 139 134 143 143 147 155 174 194 212 231 222 224 219 215 225 240 256 261 262 265 265 270 266 276 285 288 287 288 280 275 272 273 274 275 277 279
157 155 154 154 156 159 166 188 198 209 214 235 251 255 255 245 243 240 232 229 232 240 241 242 247 258 269 272 272 276 272 276 286 286 286 283 287 287 287 291 293 291 291
169 166 171 174 177 187 192 201 231 241 251 261 267 264 257 258 256 248 245 241 240 237 240 240 241 247 254 262 270 274 276 282 286 288 289 290 288 289 288 288 289 291 293
181 184 189 200 201 204 228 261 272 272 270 265 257 254 256 252 247 248 247 243 234 233 236 240 244 252 260 266 269 273 274 273 277 283 284 286 287 288 289 288 286 286 287
194 197 199 206 229 249 269 276 272 267 264 261 259 256 252 250 246 245 245 246 248 247 251 254 257 266 273 282 282 284 286 288 291 293 295 293 292 293 293 291 291 289 288
206 205 207 225 246 257 260 267 271 264 256 248 244 242 240 239 243 250 254 262 269 274 276 274 282 292 297 303 308 311 313 312 312 312 310 308 307 305 304 304 304 306 304
Wind_Speed_850mb
44 44 45 42 45 39 39 39 36 33 29 34 32 27 23 16 15 12 9 8 12 11 10 11 14 7 11 14 9 8 5 9 14 11 11 14 14 11 11 12 13 14 13
40 44 50 49 47 44 40 40 37 34 32 33 26 26 21 18 14 10 9 8 9 13 12 16 12 11 16 10 8 8 6 11 17 15 12 9 9 10 9 7 9 10 13
51 48 50 54 50 49 44 40 37 35 33 31 27 29 23 18 18 13 10 9 11 16 11 11 15 11 10 8 7 5 6 11 16 16 12 7 8 10 7 5 5 12 14
52 50 53 55 55 53 46 42 39 35 35 31 29 27 22 18 15 17 10 9 11 14 18 13 15 11 13 9 10 4 4 8 14 11 14 14 16 8 7 8 4 13 10
57 56 58 59 59 57 51 45 42 37 36 34 29 27 21 18 15 17 15 11 11 11 20 20 17 12 10 12 14 7 3 6 11 14 11 14 17 19 9 5 5 8 6
55 57 56 60 62 61 56 48 44 41 37 35 31 31 21 19 17 14 18 15 12 13 20 22 21 18 12 11 11 12 9 3 5 10 13 12 13 18 14 6 6 3 3
51 48 57 61 66 64 59 46 45 46 43 39 35 32 28 21 16 14 10 15 15 11 18 21 22 21 14 12 10 16 13 7 4 2 6 7 10 14 18 17 7 5 4
50 53 55 63 60 49 52 56 49 54 49 44 38 33 29 28 16 15 11 8 16 11 14 20 17 24 20 14 17 17 17 14 11 8 6 3 4 8 11 15 17 7 5
54 51 49 56 69 57 46 66 59 50 52 50 44 37 30 28 26 18 15 11 12 14 13 18 16 20 22 19 19 23 22 22 22 18 16 14 11 6 7 9 11 12 8
37 54 55 48 67 66 51 40 51 57 55 54 50 38 31 27 28 24 20 16 16 21 18 17 19 17 17 21 19 21 26 24 23 25 26 23 22 18 13 12 13 12 11
36 46 56 60 61 69 66 40 35 49 52 47 48 47 36 32 31 29 25 18 16 18 23 24 23 26 25 24 24 20 23 27 29 29 29 28 28 26 26 23 21 23 21
27 36 44 56 61 62 72 58 50 48 43 44 52 48 43 38 35 35 33 27 21 17 15 16 22 21 23 27 26 24 22 24 22 23 26 28 28 31 30 29 30 29 31
21 22 25 38 47 56 66 66 53 57 43 35 45 50 37 39 37 34 35 34 27 27 23 21 19 20 17 21 22 19 23 24 24 26 24 24 26 27 30 30 32 31 35
19 22 22 25 25 34 56 62 62 56 50 44 36 47 55 42 38 32 29 32 32 30 27 28 26 21 20 18 18 19 21 27 24 23 24 22 22 23 24 26 30 33 36
15 19 22 25 25 32 39 50 47 48 42 31 28 29 40 35 25 24 23 24 25 25 25 23 29 28 25 26 27 25 24 26 26 28 28 28 27 24 29 31 32 31 31
16 19 25 24 27 32 35 30 40 40 33 26 25 29 37 39 24 18 17 20 24 26 22 18 22 28 32 32 29 29 29 31 31 30 31 31 32 34 32 32 31 32 33
24 22 25 29 27 32 38 39 42 42 38 36 32 31 32 33 37 36 18 15 10 12 14 16 14 16 25 31 31 33 32 31 31 32 32 32 29 33 33 31 29 34 34
23 24 26 28 28 28 26 27 32 33 34 32 26 22 17 20 25 26 31 37 28 20 16 14 17 17 20 21 22 30 32 34 35 35 34 36 36 36 37 40 42 41 41
25 26 25 27 30 31 30 31 33 32 32 27 22 18 15 15 18 20 22 23 22 18 18 26 25 26 28 25 25 19 22 29 35 37 36 39 40 46 46 47 49 48 50
31 32 32 32 29 30 25 21 24 23 21 22 17 13 11 10 13 13 13 11 10 13 14 12 18 24 28 34 37 35 30 25 26 31 36 45 48 50 48 48 51 50 43
38 37 35 33 31 29 22 16 18 15 14 11 9 8 7 7 8 10 11 12 13 13 11 12 14 16 17 27 35 39 44 41 34 28 32 37 45 48 49 50 50 51 55
41 37 36 32 27 21 15 10 8 7 6 5 6 8 9 9 10 11 12 12 13 14 16 17 17 20 22 22 25 25 29 34 34 30 29 28 32 35 38 39 40 42 43
40 35 26 22 19 13 9 7 6 7 7 9 10 11 12 13 13 13 15 16 17 18 21 21 23 25 27 29 29 31 32 37 38 40 39 42 42 42 40 38 40 42 43
36 30 24 18 14 11 9 9 11 13 13 13 13 15 16 16 15 14 14 13 13 15 18 20 21 22 24 27 29 32 33 34 37 39 40 43 47 50 49 49 47 46 45
35 28 21 16 13 11 11 12 12 12 12 12 13 14 15 15 14 15 14 14 15 14 15 15 16 18 19 20 23 25 26 29 32 32 33 35 36 37 38 39 41 42 44
37 32 24 19 16 16 16 15 14 12 11 12 13 14 14 14 13 11 11 10 13 15 14 15 14 17 20 25 27 30 32 33 35 35 33 33 32 33 35 38 39 37 36
Wind_Direction_850mb
198 199 200 201 202 196 195 197 194 191 190 184 177 177 177 170 163 169 178 179 189 198 178 171 147 143 141 134 113 113 82 44 43 51 34 54 72 82 92 95 101 97 90
201 201 204 205 208 206 202 202 201 201 195 189 195 189 183 189 186 199 207 194 189 182 165 172 170 141 146 145 126 125 91 55 43 41 46 39 61 48 54 83 94 100 109
202 203 204 207 208 211 209 205 203 200 198 200 204 196 192 195 198 205 211 229 219 197 187 186 194 176 175 165 153 123 86 53 39 41 51 34 35 34 33 49 87 128 120
206 206 207 208 211 213 212 210 204 199 200 206 209 211 211 210 200 195 204 200 197 206 204 186 178 200 208 208 197 160 78 63 49 56 49 55 46 27 29 26 91 153 142
206 208 213 213 211 212 211 212 207 202 207 211 213 215 222 207 197 195 201 203 215 207 198 197 192 183 167 185 191 194 141 64 58 61 76 60 44 30 40 44 50 173 183
206 214 224 216 211 214 212 214 214 210 212 219 214 212 217 213 204 206 214 219 213 219 206 202 198 185 185 202 206 207 205 159 67 70 79 74 59 41 39 24 16 57 143
204 208 214 213 212 213 213 216 224 221 215 218 220 220 222 223 225 202 195 208 216 211 205 204 204 199 204 211 218 209 205 211 197 73 66 59 52 46 41 36 23 62 26
203 206 213 214 212 216 222 213 223 225 223 220 223 226 226 231 241 235 203 217 228 223 221 211 202 209 212 223 223 219 225 227 230 236 254 324 17 28 27 29 28 11 359
200 205 205 213 205 206 222 226 228 228 231 229 227 229 234 234 231 237 228 234 235 228 219 213 215 207 218 232 234 227 231 240 244 250 249 257 279 315 345 355 4 12 357
186 201 208 205 204 203 213 224 233 238 239 237 234 233 242 241 232 234 239 245 244 229 229 227 227 225 228 234 231 234 238 240 247 255 252 248 254 270 287 304 317 317 320
180 195 206 213 214 208 208 225 230 239 245 239 241 231 241 243 238 233 237 247 254 241 241 235 240 240 241 240 247 251 249 242 247 256 257 250 248 252 266 279 288 293 295
186 201 200 208 216 218 216 222 233 249 251 242 237 231 235 246 246 239 238 242 245 231 235 229 236 250 253 243 254 253 247 240 256 256 252 247 252 250 255 266 277 278 274
183 186 207 210 213 216 215 223 240 246 239 233 234 240 233 246 245 241 236 239 245 247 247 239 248 254 248 244 249 254 238 243 252 258 257 250 249 252 254 262 273 275 273
180 182 173 191 202 214 214 216 223 231 236 233 250 240 226 238 242 236 235 237 242 252 258 252 247 244 238 249 248 251 251 251 254 253 255 251 254 257 257 263 274 272 266
168 181 178 185 191 196 213 220 223 231 232 218 232 223 214 207 200 208 214 222 233 242 247 251 245 243 252 247 243 245 246 247 252 258 258 259 259 259 259 261 269 271 265
170 167 177 172 180 190 199 192 203 208 196 200 206 212 220 214 184 174 183 214 230 235 233 232 237 242 245 251 260 258 257 257 258 259 258 263 261 262 260 261 263 265 269
168 163 171 176 169 168 172 177 185 191 193 191 196 203 215 223 222 227 229 245 224 208 222 222 221 237 241 252 257 259 260 263 266 270 269 270 269 268 264 260 262 267 265
149 151 155 162 167 175 183 196 190 188 187 192 199 203 202 202 209 220 232 237 237 253 249 238 238 250 254 254 260 259 257 260 262 264 267 269 270 272 271 269 269 272 274
145 143 144 152 146 152 157 164 162 169 176 188 189 191 187 200 228 231 232 223 224 232 249 248 252 259 268 266 255 276 277 267 262 262 265 266 267 263 261 265 272 274 275
156 149 142 138 139 132 127 140 143 142 148 153 167 178 198 215 224 216 205 212 221 223 218 237 248 249 257 266 265 266 276 288 285 281 274 268 266 268 268 268 269 272 275
157 153 148 142 140 135 134 139 134 143 143 147 155 174 194 212 231 222 224 219 215 225 240 256 261 262 265 265 270 266 276 285 288 287 288 280 275 272 273 274 275 277 279
157 155 154 154 156 159 166 188 198 209 214 235 251 255 255 245 243 240 232 229 232 240 241 242 247 258 269 272 272 276 272 276 286 286 286 283 287 287 287 291 293 291 291
169 166 171 174 177 187 192 201 231 241 251 261 267 264 257 258 256 248 245 241 240 237 240 240 241 247 254 262 270 274 276 282 286 288 289 290 288 289 288 288 289 291 293
181 184 189 200 201 204 228 261 272 272 270 265 257 254 256 252 247 248 247 243 234 233 236 240 244 252 260 266 269 273 274 273 277 283 284 286 287 288 289 288 286 286 287
194 197 199 206 229 249 269 276 272 267 264 261 259 256 252 250 246 245 245 246 248 247 251 254 257 266 273 282 282 284 286 288 291 293 295 293 292 293 293 291 291 289 288
206 205 207 225 246 257 260 267 271 264 256 248 244 242 240 239 243 250 254 262 269 274 276 274 282 292 297 303 308 311 313 312 312 312 310 308 307 305 304 304 304 306 304